Barrow, AK

9:34 AM AKDT on June 24, 2018 (GMT -0800)
Wiley Post-Will Rogers Memorial

Weather History for PABR - November, 2017

Change the Weather History Date:

Thursday, November 30, 2017

  Actual Average Record
Temperature  
Mean Temperature 4 °F -4 °F  
Max Temperature 6 °F 1 °F 27 °F (1966)
Min Temperature 1 °F -10 °F -38 °F (1948)
Degree Days  
Heating Degree Days 61 69  
Month to date heating degree days 1327 1928  
Since 1 July heating degree days 4827 5952  
Cooling Degree Days 0 0  
Month to date cooling degree days 0 0  
Year to date cooling degree days 0 0  
Moisture  
Dew Point 2 °F    
Average Humidity 90    
Maximum Humidity 92    
Minimum Humidity 87    
Precipitation  
Precipitation T in 0.01 in 0.12 in (1965)
Month to date precipitation 0.97 0.21  
Year to date precipitation 8.01 4.39  
Snow  
Snow T in 0.10 in 1.00 in (1965)
Month to date snowfall 6.9 5.7  
Since 1 July snowfall 14.8 20.3  
Since 1 September snowfall 14.0 19.2  
Snow Depth 5.00 in    
Sea Level Pressure  
Sea Level Pressure 29.66 in    
Wind  
Wind Speed 12 mph (ENE)    
Max Wind Speed 16 mph    
Max Gust Speed -    
Visibility 5 miles    
Events Fog , Snow    
T = Trace of Precipitation, MM = Missing Value Source: NWS Daily Summary

Daily Weather History Graph

Daily Weather History Graph

Search for Another Location

Airport or City:

Astronomy

Dec. 31, 1969 Rise Set
Actual Time Sun does not set Sun does not set
Civil Twilight 10:59 AM AKST 3:31 PM AKST
Nautical Twilight 9:10 AM AKST 5:20 PM AKST
Astronomical Twilight 7:48 AM AKST 6:42 PM AKST
Moon 3:22 PM AKST (11/30) 5:41 AM AKST (11/30)
Length of Visible Light 4h 32m
Length of Day
0h 00m
Waxing Gibbous, 89% of the Moon is Illuminated
Nov 30
Waxing Gibbous
Dec 3
Full
Dec 9
Last Quarter
Dec 17
New
Dec 26
First Quarter

Hourly Weather History & Observations

Time (AKST) Temp. Windchill Dew Point Humidity Pressure Visibility Wind Dir Wind Speed Gust Speed Precip Events Conditions
12:05 AM 5.0 °F -13.6 °F 1.9 °F 87% 29.62 in 7.0 mi NE 16.1 mph - N/A   Mostly Cloudy
12:13 AM 5.0 °F -13.0 °F 1.9 °F 87% 29.62 in 10.0 mi NE 15.0 mph - N/A   Scattered Clouds
12:53 AM 3.9 °F -12.2 °F 1.0 °F 88% 29.63 in 10.0 mi NE 11.5 mph - N/A   Clear
1:50 AM 5.0 °F -11.6 °F 3.2 °F 92% 29.63 in 9.0 mi NE 12.7 mph - N/A   Scattered Clouds
1:53 AM 5.0 °F -10.8 °F 3.0 °F 92% 29.63 in 9.0 mi NE 11.5 mph - N/A   Scattered Clouds
2:01 AM 5.0 °F -10.8 °F 3.0 °F 92% 29.63 in 9.0 mi ENE 11.5 mph - N/A   Mostly Cloudy
2:40 AM 5.0 °F -12.3 °F 3.0 °F 92% 29.63 in 9.0 mi NE 13.8 mph - N/A   Overcast
2:53 AM 5.0 °F -11.6 °F 3.0 °F 92% 29.63 in 5.0 mi NE 12.7 mph - N/A   Overcast
3:53 AM 3.9 °F -13.0 °F 1.9 °F 91% 29.62 in 9.0 mi NE 12.7 mph - N/A   Scattered Clouds
4:34 AM 3.9 °F -13.7 °F 1.9 °F 91% 29.61 in 4.0 mi NE 13.8 mph - N/A   Mostly Cloudy
4:53 AM 3.9 °F -13.0 °F 1.9 °F 91% 29.62 in 4.0 mi NE 12.7 mph - N/A   Overcast
5:10 AM 3.9 °F -13.0 °F 1.9 °F 91% 29.62 in 1.8 mi ENE 12.7 mph - N/A   Mostly Cloudy
5:30 AM 5.0 °F -10.8 °F 1.9 °F 87% 29.62 in 3.0 mi ENE 11.5 mph - N/A   Overcast
5:39 AM 5.0 °F -11.6 °F 1.9 °F 87% 29.62 in 3.0 mi ENE 12.7 mph - N/A   Overcast
5:43 AM 5.0 °F -11.6 °F 3.0 °F 92% 29.62 in 1.8 mi NE 12.7 mph - N/A   Overcast
5:53 AM 5.0 °F -10.0 °F 3.0 °F 92% 29.63 in 1.8 mi ENE 10.4 mph - N/A   Overcast
6:21 AM 5.0 °F -10.0 °F 3.0 °F 92% 29.62 in 3.0 mi ENE 10.4 mph - N/A   Overcast
6:26 AM 5.0 °F -10.0 °F 3.0 °F 92% 29.62 in 1.8 mi ENE 10.4 mph - N/A   Overcast
6:53 AM 5.0 °F -10.8 °F 1.9 °F 87% 29.63 in 1.5 mi ENE 11.5 mph - N/A   Overcast
7:01 AM 3.9 °F -11.3 °F 1.9 °F 91% 29.63 in 3.0 mi ENE 10.4 mph - N/A   Overcast
7:08 AM 3.9 °F -12.2 °F 1.9 °F 91% 29.62 in 1.5 mi NE 11.5 mph - N/A   Overcast
7:15 AM 3.9 °F -11.3 °F 1.9 °F 91% 29.62 in 0.5 mi NE 10.4 mph - N/A Fog Light Freezing Fog
7:46 AM 6.1 °F -8.7 °F 3.9 °F 91% 29.63 in 0.8 mi NE 10.4 mph - 0.00 in Snow Light Snow
7:53 AM 6.1 °F -7.8 °F 3.9 °F 91% 29.64 in 1.0 mi ENE 9.2 mph - 0.00 in Snow Light Snow
8:02 AM 6.1 °F -7.8 °F 3.9 °F 91% 29.63 in 1.0 mi ENE 9.2 mph - 0.00 in Snow Light Snow
8:34 AM 6.1 °F -6.8 °F 3.9 °F 91% 29.64 in 2.5 mi East 8.1 mph - 0.00 in Snow Light Snow
8:43 AM 6.1 °F -8.7 °F 3.9 °F 91% 29.64 in 1.5 mi East 10.4 mph - 0.00 in Snow Light Snow
8:53 AM 6.1 °F -7.8 °F 3.9 °F 91% 29.65 in 1.0 mi East 9.2 mph - 0.00 in Snow Light Snow
9:18 AM 5.0 °F -11.6 °F 3.0 °F 92% 29.64 in 2.0 mi ENE 12.7 mph - 0.00 in Snow Light Snow
9:33 AM 5.0 °F -10.0 °F 3.0 °F 92% 29.64 in 1.2 mi ENE 10.4 mph - 0.00 in Snow Light Snow
9:53 AM 3.9 °F -13.0 °F 1.9 °F 91% 29.66 in 1.5 mi East 12.7 mph - 0.00 in   Mist
9:56 AM 3.9 °F -13.0 °F 1.9 °F 91% 29.65 in 1.5 mi East 12.7 mph - N/A   Overcast
10:06 AM 3.9 °F -12.2 °F 1.0 °F 88% 29.65 in 4.0 mi East 11.5 mph - N/A   Overcast
10:25 AM 3.9 °F -12.2 °F 1.9 °F 91% 29.65 in 1.8 mi East 11.5 mph - N/A   Overcast
10:53 AM 3.9 °F -10.4 °F 1.9 °F 91% 29.67 in 3.0 mi East 9.2 mph - N/A   Mist
11:01 AM 3.9 °F -9.4 °F 1.9 °F 91% 29.66 in 4.0 mi East 8.1 mph - N/A   Overcast
11:53 AM 3.0 °F -12.5 °F 1.0 °F 91% 29.68 in 6.0 mi East 10.4 mph - N/A   Overcast
12:53 PM 3.9 °F -11.3 °F 1.9 °F 91% 29.69 in 6.0 mi East 10.4 mph - N/A   Overcast
1:31 PM 5.0 °F -10.0 °F 1.9 °F 87% 29.68 in 10.0 mi ENE 10.4 mph - N/A   Overcast
1:53 PM 5.0 °F -11.6 °F 1.9 °F 87% 29.70 in 5.0 mi ENE 12.7 mph - N/A   Overcast
2:26 PM 5.0 °F -8.1 °F 1.9 °F 87% 29.70 in 10.0 mi East 8.1 mph - N/A   Overcast
2:53 PM 3.9 °F -10.4 °F 1.9 °F 91% 29.71 in 10.0 mi East 9.2 mph - N/A   Overcast
3:53 PM 5.0 °F -10.0 °F 1.9 °F 87% 29.72 in 10.0 mi East 10.4 mph - N/A   Overcast
4:53 PM 5.0 °F -10.8 °F 3.0 °F 92% 29.72 in 10.0 mi East 11.5 mph - N/A   Overcast
5:53 PM 3.9 °F -12.2 °F 1.0 °F 88% 29.72 in 10.0 mi East 11.5 mph - N/A   Overcast
6:05 PM 5.0 °F -10.8 °F 1.9 °F 87% 29.72 in 10.0 mi East 11.5 mph - N/A   Overcast
6:16 PM 5.0 °F -10.8 °F 1.9 °F 87% 29.72 in 10.0 mi East 11.5 mph - N/A   Overcast
6:53 PM 1.9 °F -13.8 °F -0.9 °F 88% 29.74 in 10.0 mi East 10.4 mph - N/A   Mostly Cloudy
7:53 PM 3.9 °F -13.0 °F 1.0 °F 88% 29.75 in 10.0 mi ENE 12.7 mph - N/A   Mostly Cloudy
8:53 PM 1.9 °F -7.6 °F -0.9 °F 88% 29.76 in 6.0 mi SSE 4.6 mph - N/A   Mostly Cloudy
9:53 PM 1.9 °F -10.6 °F -0.9 °F 88% 29.76 in 8.0 mi SE 6.9 mph - N/A   Overcast
10:12 PM 1.9 °F -7.6 °F -0.0 °F 91% 29.76 in 10.0 mi SE 4.6 mph - N/A   Overcast
10:53 PM 3.0 °F -4.4 °F 1.0 °F 91% 29.77 in 10.0 mi SSE 3.5 mph - N/A   Overcast
11:53 PM 3.0 °F - 1.0 °F 91% 29.78 in 8.0 mi Calm Calm - N/A   Overcast